BREEZE-M DEB, 43407

Orbit data source: Space-Track

BREEZE-M DEB, 43407 is space debris in HEO originally from a launch on Mon, 15 Apr 2013 UTC launched from the Tyuratam Missile And Space Complex (TTMTR). Debris objects in space refer to the collection of defunct objects orbiting the Earth. Examples of debris include non-operational satellites, rocket bodies, and fragments generated from explosions, collisions, or faulty payload assembly.

Loading next visibility...
BREEZE-M DEB details
Identifier
43407, 2013-014D
Orbit
HEO
Last TLE update2 days ago
Origin
Flag of CISKhrunichev (CIS)
ManufacturerKhrunichev
MissionSpacecraft
Bus & MotorUnknown
MassUnknown
Launch date (UTC)
2013-04-15 (12 years ago)
Launch vehicleUnknown
Launch site
Tyuratam Missile And Space Complex (TTMTR)
Object type
Payload
Rocket body
Debris
Shape & HBRUnknown
Radar Cross SectionSmall (<0.1 m²)

Expand to show TLE details & history

TLE from 2 days ago
0 BREEZE-M DEB
1 43407U 13014D   24359.64245725 -.00000059  00000-0  00000-0 0  9990
2 43407  15.0323  47.0106 4817822 127.7535 286.3113  1.91514557 65029
Epoch: 2024-12-24T15:25Z
Definitive object data (Epoch: 2024-12-24T15:25:08.306Z)
Latitude-0.00001°
Longitude82.05292°
Altitude23,462.26 km
Speed3.488 km/s
True Right ascension03h 07m 56s
True Declination0° 00' 00"
Sunlit
Object was in daylight at TLE epoch
Visualization TLE readout
Latitude-14.41348°
Longitude-25.4363°
Altitude22,744.359 km
Speed3.581 km/s
Apparent Right ascension20h 10m 19s
Apparent Declination-19° 00' 42"
Sunlit
Object is in daylight
Visualization observer readout
Local Sidereal Time09:22:31
Azimuth41.859° NE
Elevation-63.961°
Doppler factor1
Orbital elements
Apogee altitude34,211.891 km
Perigee altitude7,817.252 km
Semi-major axis27,392.709 km
Eccentricity0.4817822
Inclination15.0323°
RAAN47.0106°
Arg. of periapsis127.7535°
True anomaly232.13562°
Mean anomaly286.3113°
Eccentric anomaly259.19648°
Mean motion0.47873 °/min
BSTARUnknown
Orbital period751.99 mins
Loading maneuver chart data...
Loading historical data...
Loading historical data...
Loading historical data...
Loading historical data...
Loading historical data...
Loading historical data...
Loading historical data...
Other satellites on launch #14 in the year 2013 (2013-04-15 UTC)

BREEZE-M DEB Visibility forecast

Observer location: undefined°, undefined

Span
Click to sort rows by Start time (UTC) header in descending order
Start Az.
Max El. time (UTC)
Max El. Az.
Max El.
End time (UTC)
End Az.
656 mins2024-12-26 21:40:24.172Z226.191° WSW2024-12-27 07:51:24.172Z176.801° S37.447°2024-12-27 08:36:24.172Z105.802° ESE
|